Weather History for Alturas, CA

Change the Weather History Date:

Thursday, February 27, 2014

  Actual Average Record
Temperature  
Mean Temperature 40 °F 36 °F  
Max Temperature 49 °F 49 °F 70 °F (1968)
Min Temperature 30 °F 24 °F -4 °F (1962)
Degree Days  
Heating Degree Days 25 29  
Month to date heating degree days 754 840  
Since 1 July heating degree days 4739 4838  
Cooling Degree Days 0 0  
Month to date cooling degree days 0 0  
Year to date cooling degree days 0 0  
Moisture  
Dew Point 35 °F    
Average Humidity 69    
Maximum Humidity 89    
Minimum Humidity 49    
Precipitation  
Precipitation 0.05 in 0.06 in 0.72 in (2006)
Month to date precipitation 1.29 1.40  
Year to date precipitation 1.41 3.05  
Sea Level Pressure  
Sea Level Pressure 29.73 in    
Wind  
Wind Speed 8 mph (SSW)    
Max Wind Speed 21 mph    
Max Gust Speed 25 mph    
Visibility 10 miles    
Events Rain    
T = Trace of Precipitation, MM = Missing Value Source: NWS Daily Summary

Daily Weather History Graph

Daily Weather History Graph

Search for Another Location

Airport:

Trip Planner

Search our weather history database for the weather conditions in past years. The results will help you decide how hot, cold, wet, or windy it might be!

Date:

Astronomy

Feb. 27, 2014 Rise Set
Actual Time 6:39 AM PST 5:50 PM PST
Civil Twilight 6:11 AM PST 6:18 PM PST
Nautical Twilight 5:39 AM PST 6:50 PM PST
Astronomical Twilight 5:07 AM PST 7:22 PM PST
Moon 5:16 AM PST (2/27) 4:21 PM PST (2/27)
Length of Visible Light 12h 06m
Length of Day
11h 10m
Waning Crescent, 3% of the Moon is Illuminated
Feb 27
Waning Crescent
Mar 1
New
Mar 8
First Quarter
Mar 16
Full
Mar 23
Last Quarter

Hourly Weather History & Observations

Time (PST) Temp. Windchill Dew Point Humidity Pressure Visibility Wind Dir Wind Speed Gust Speed Precip Events Conditions
12:55 AM 44.1 °F 37.1 °F 37.9 °F 79% 29.61 in 10.0 mi South 15.0 mph - N/A   Overcast
1:55 AM 44.1 °F 37.7 °F 35.1 °F 71% 29.63 in 10.0 mi South 12.7 mph 23.0 mph N/A   Overcast
2:55 AM 41.0 °F 35.2 °F 34.0 °F 76% 29.63 in 10.0 mi South 9.2 mph - N/A   Overcast
3:55 AM 39.9 °F 34.5 °F 34.0 °F 79% 29.64 in 10.0 mi South 8.1 mph - N/A   Scattered Clouds
4:55 AM 39.9 °F 32.9 °F 33.1 °F 77% 29.67 in 10.0 mi SSW 11.5 mph - N/A   Mostly Cloudy
5:29 AM 39.0 °F 32.3 °F 32.0 °F 76% 29.70 in 10.0 mi SSW 10.4 mph - N/A   Mostly Cloudy
5:55 AM 37.9 °F 33.5 °F 32.0 °F 79% 29.69 in 10.0 mi SW 5.8 mph - N/A   Mostly Cloudy
6:16 AM 37.9 °F 34.4 °F 33.1 °F 83% 29.71 in 10.0 mi West 4.6 mph - N/A   Overcast
6:55 AM 36.0 °F 33.3 °F 32.0 °F 86% 29.71 in 10.0 mi West 3.5 mph - N/A   Mostly Cloudy
7:55 AM 39.9 °F 35.8 °F 34.0 °F 79% 29.73 in 10.0 mi SSE 5.8 mph - N/A   Mostly Cloudy
8:55 AM 43.0 °F 38.8 °F 34.0 °F 71% 29.73 in 10.0 mi South 6.9 mph - N/A   Clear
9:55 AM 45.0 °F 39.7 °F 30.9 °F 58% 29.73 in 10.0 mi South 10.4 mph - N/A   Scattered Clouds
10:55 AM 46.0 °F 40.2 °F 28.9 °F 51% 29.73 in 10.0 mi SSW 12.7 mph - N/A   Overcast
11:55 AM 44.1 °F 38.1 °F 35.1 °F 71% 29.73 in 10.0 mi SW 11.5 mph - 0.00 in Rain Light Rain
12:55 PM 46.0 °F 39.9 °F 34.0 °F 63% 29.72 in 10.0 mi South 13.8 mph - 0.00 in   Overcast
1:55 PM 48.0 °F - 34.0 °F 58% 29.68 in 10.0 mi South 12.7 mph 17.3 mph 0.00 in   Overcast
2:55 PM 43.0 °F 35.1 °F 36.0 °F 76% 29.74 in 7.0 mi West 17.3 mph - 0.01 in Rain Light Rain
3:06 PM 42.1 °F 35.2 °F 37.9 °F 85% 29.76 in 5.0 mi West 12.7 mph - 0.03 in Rain Rain
3:25 PM 44.1 °F 39.0 °F 39.9 °F 85% 29.76 in 10.0 mi West 9.2 mph - 0.04 in   Mostly Cloudy
3:55 PM 45.0 °F 40.1 °F 37.9 °F 76% 29.74 in 10.0 mi SW 9.2 mph - 0.04 in   Overcast
4:47 PM 43.0 °F 39.5 °F 37.9 °F 82% 29.76 in 10.0 mi West 5.8 mph - 0.00 in Rain Light Rain
4:55 PM 43.0 °F 37.2 °F 37.0 °F 80% 29.75 in 10.0 mi West 10.4 mph - 0.00 in   Overcast
5:52 PM 41.0 °F 38.0 °F 37.4 °F 87% 29.77 in 10.0 mi SW 4.6 mph - 0.00 in   Overcast
5:55 PM 41.0 °F 38.0 °F 37.9 °F 89% 29.77 in 10.0 mi SSW 4.6 mph - 0.00 in   Overcast
6:55 PM 41.0 °F - 37.9 °F 89% 29.78 in 10.0 mi Calm Calm - N/A   Overcast
7:11 PM 41.0 °F - 37.9 °F 89% 29.78 in 10.0 mi Calm Calm - N/A   Overcast
7:47 PM 41.0 °F - 37.9 °F 89% 29.78 in 10.0 mi Calm Calm - N/A   Overcast
7:55 PM 41.0 °F - 37.9 °F 89% 29.78 in 10.0 mi Calm Calm - N/A   Overcast
8:55 PM 37.9 °F 33.5 °F 34.0 °F 86% 29.78 in 10.0 mi SSE 5.8 mph - N/A   Mostly Cloudy
9:07 PM 37.0 °F 33.3 °F 34.0 °F 89% 29.78 in 10.0 mi South 4.6 mph - N/A   Mostly Cloudy
9:46 PM 37.0 °F 31.6 °F 32.0 °F 82% 29.78 in 10.0 mi South 6.9 mph - N/A   Overcast
9:55 PM 36.0 °F 31.1 °F 30.9 °F 82% 29.77 in 10.0 mi South 5.8 mph - N/A   Mostly Cloudy
10:55 PM 33.1 °F - 28.9 °F 85% 29.74 in 6.0 mi Calm Calm - N/A   Clear
11:55 PM 30.0 °F 25.2 °F 27.0 °F 88% 29.73 in 10.0 mi SW 4.6 mph - N/A   Clear